Stations météo

réclame
Mon MeteoGroup
Lulea/Kallax, Suède (2186): Température de l'air & dewpoint: 13.06.2019 01:00:00 - 19.06.2019 01:00:00 (CEST)Lulea/Kallax, Suède (2186): Vitesse du vent & gusts: 13.06.2019 01:00:00 - 19.06.2019 01:00:00 (CEST)Lulea/Kallax, Suède (2186): Direction du vent: 13.06.2019 01:00:00 - 19.06.2019 01:00:00 (CEST)Lulea/Kallax, Suède (2186): reduced air pressure: 13.06.2019 01:00:00 - 19.06.2019 01:00:00 (CEST)Lulea/Kallax, Suède (2186): visibility: 13.06.2019 01:00:00 - 19.06.2019 01:00:00 (CEST)Lulea/Kallax, Suède (2186): Quantités de précipitations: 13.06.2019 01:00:00 - 19.06.2019 01:00:00 (CEST)
Date & Time tt [°C] td [°C] ff [km/h] ff [knt] fx [km/h] fx [knt] dd ppp [hPa] vv [km] rr [mm]
19.06.2019 01:00:00 15,0 7,0 13 7 - - NW - 10 -
19.06.2019 00:00:00 16,5 7,7 15 8 22 12 NW 1006,6 10 0,0
18.06.2019 23:00:00 18,4 10,5 0 0 11 6 N 1006,2 10 0,0
18.06.2019 22:00:00 19,9 8,3 8 4 22 12 WNW 1005,8 10 0,0
18.06.2019 21:00:00 20,7 9,0 16 9 40 21 NW 1005,1 10 0,0
18.06.2019 20:00:00 22,8 3,1 26 14 40 21 W 1004,6 10 0,0
18.06.2019 19:00:00 23,5 6,0 18 10 32 18 W 1004,4 10 0,0
18.06.2019 18:00:00 22,7 9,5 11 6 25 14 S 1004,4 10 0,0
18.06.2019 17:00:00 20,6 11,8 15 8 29 16 S 1005,0 10 0,0
18.06.2019 16:00:00 18,5 12,5 21 11 36 19 S 1005,2 10 0,0
18.06.2019 15:00:00 19,9 12,4 24 13 40 21 S 1005,1 10 0,0
18.06.2019 14:00:00 19,5 12,3 24 13 40 21 S 1005,5 10 0,0
18.06.2019 13:00:00 21,1 11,4 21 11 32 18 S 1005,7 10 0,0
18.06.2019 12:00:00 21,5 10,6 18 10 25 14 S 1005,8 10 0,0
18.06.2019 11:00:00 21,8 10,6 15 8 22 12 SSE 1005,8 10 0,0
18.06.2019 10:00:00 20,5 10,3 13 7 18 10 S 1006,0 10 0,0
18.06.2019 09:00:00 19,3 10,6 4 2 14 8 - 1006,1 10 0,0
18.06.2019 08:00:00 18,1 10,2 2 1 11 6 - 1006,0 10 0,0
18.06.2019 07:00:00 16,8 9,7 4 2 14 8 NW 1005,9 65 0,0
18.06.2019 06:00:00 15,1 9,9 0 0 11 6 N 1005,8 10 0,0
18.06.2019 05:00:00 14,9 9,9 0 0 4 2 N 1005,5 10 0,0
18.06.2019 04:00:00 14,7 10,1 5 3 14 8 NW 1005,4 10 0,0
18.06.2019 03:00:00 15,3 10,9 11 6 14 8 W 1005,5 10 0,0
18.06.2019 02:00:00 16,0 12,0 5 3 - - W - 10 -
18.06.2019 01:00:00 16,3 13,4 9 5 18 10 WSW 1005,5 10 0,0
18.06.2019 00:00:00 16,4 14,6 11 6 18 10 WSW 1005,4 10 0,2
17.06.2019 23:00:00 16,5 14,9 2 1 11 6 S 1005,4 10 0,1
17.06.2019 22:00:00 16,3 14,3 4 2 11 6 S 1005,2 10 0,0
17.06.2019 21:00:00 17,0 14,3 8 4 14 8 SW 1005,8 10 0,8
17.06.2019 20:00:00 18,2 13,9 4 2 14 8 SSW 1006,1 10 0,0
17.06.2019 19:00:00 19,5 13,4 2 1 7 4 - 1005,6 10 0,0
17.06.2019 18:00:00 19,5 13,4 4 2 7 4 SE 1005,7 10 0,0
17.06.2019 17:00:00 19,1 13,9 2 1 18 10 - 1006,2 10 0,0
17.06.2019 16:00:00 19,0 14,5 9 5 14 8 SE 1006,3 10 0,0
17.06.2019 15:00:00 20,4 14,3 5 3 11 6 SE 1006,7 10 0,0
17.06.2019 14:00:00 20,3 15,1 2 1 7 4 - 1006,7 10 0,0
17.06.2019 13:00:00 17,2 14,3 4 2 11 6 - 1006,8 10 0,4
17.06.2019 12:00:00 17,6 13,5 8 4 14 8 SE 1007,5 10 0,0
17.06.2019 11:00:00 17,2 13,1 4 2 11 6 - 1007,2 10 0,0
17.06.2019 10:00:00 17,0 13,1 4 2 7 4 S 1007,2 10 0,0
17.06.2019 09:00:00 17,8 13,5 0 0 11 6 N 1006,9 10 0,0
17.06.2019 08:00:00 18,7 12,9 4 2 7 4 SE 1007,1 60 0,0
17.06.2019 07:00:00 16,1 12,5 0 0 7 4 N 1007,2 10 0,0
17.06.2019 06:00:00 15,2 12,3 4 2 7 4 - 1007,3 10 0,0
17.06.2019 05:00:00 14,5 12,2 4 2 7 4 N 1007,4 10 0,0
17.06.2019 04:00:00 12,7 11,3 0 0 4 2 N 1007,3 10 0,0
17.06.2019 03:00:00 13,2 11,6 0 0 7 4 N 1007,5 10 0,0
17.06.2019 02:00:00 13,4 11,6 0 0 7 4 N 1007,8 10 0,0
17.06.2019 01:00:00 14,5 12,0 2 1 7 4 - 1007,9 10 0,0
17.06.2019 00:00:00 14,8 11,8 8 4 14 8 SE 1007,9 10 0,0
16.06.2019 23:00:00 14,7 11,7 8 4 14 8 SSE 1008,2 10 0,0
16.06.2019 22:00:00 15,1 11,3 9 5 18 10 SE 1008,5 10 0,0
16.06.2019 21:00:00 15,1 11,3 13 7 22 12 SSE 1008,7 10 0,0
16.06.2019 20:00:00 17,2 11,5 15 8 22 12 SSE 1009,1 10 0,0
16.06.2019 19:00:00 19,8 11,0 13 7 22 12 SE 1009,5 10 0,0
16.06.2019 18:00:00 21,7 6,8 8 4 32 18 SE 1009,8 10 0,0
16.06.2019 17:00:00 19,3 7,7 15 8 32 18 S 1010,4 10 0,0
16.06.2019 16:00:00 19,1 7,5 13 7 25 14 S 1010,6 10 0,0
16.06.2019 15:00:00 19,7 7,1 16 9 32 18 S 1011,0 10 0,0
16.06.2019 14:00:00 22,3 6,1 16 9 22 12 S 1011,2 10 0,0
16.06.2019 13:00:00 22,6 5,1 16 9 18 10 SSE 1011,2 10 0,0
16.06.2019 12:00:00 22,6 5,5 15 8 18 10 SSE 1011,5 10 0,0
16.06.2019 11:00:00 22,7 4,7 5 3 18 10 N 1011,7 10 0,0
16.06.2019 10:00:00 21,6 5,1 8 4 18 10 N 1011,9 10 0,0
16.06.2019 09:00:00 20,6 6,2 9 5 18 10 N 1012,3 10 0,0
16.06.2019 08:00:00 19,5 5,9 13 7 22 12 NNW 1012,3 10 0,0
16.06.2019 07:00:00 18,3 7,7 13 7 22 12 N 1012,2 10 0,0
16.06.2019 06:00:00 17,1 8,5 11 6 18 10 NNW 1012,0 10 0,0
16.06.2019 05:00:00 15,3 9,4 9 5 14 8 NNW 1011,8 10 0,0
16.06.2019 04:00:00 13,0 9,1 0 0 4 2 N 1012,0 10 0,0
16.06.2019 03:00:00 12,4 9,4 0 0 4 2 N 1012,1 10 0,0
16.06.2019 02:00:00 12,9 9,3 2 1 7 4 S 1012,6 10 0,0
16.06.2019 01:00:00 13,2 9,6 2 1 7 4 S 1012,7 10 0,0
16.06.2019 00:00:00 14,4 9,0 5 3 11 6 S 1013,0 10 0,0
15.06.2019 23:00:00 15,6 8,6 5 3 14 8 SSW 1013,2 10 0,0
15.06.2019 22:00:00 16,2 7,9 8 4 14 8 SW 1013,6 10 0,0
15.06.2019 21:00:00 16,5 8,0 13 7 22 12 SSW 1013,9 10 0,0
15.06.2019 20:00:00 17,5 7,0 15 8 25 14 SSW 1014,2 10 0,0
15.06.2019 19:00:00 18,2 6,1 16 9 25 14 SSW 1014,6 10 0,0
15.06.2019 18:00:00 18,4 6,6 15 8 25 14 S 1015,1 10 0,0
15.06.2019 17:00:00 19,0 6,1 15 8 22 12 SSW 1015,3 10 0,0
15.06.2019 16:00:00 19,7 6,4 16 9 22 12 SSW 1015,6 10 0,0
15.06.2019 15:00:00 19,9 6,9 16 9 22 12 S 1015,7 10 0,0
15.06.2019 14:00:00 21,4 5,3 16 9 22 12 S 1015,8 10 0,0
15.06.2019 13:00:00 21,0 5,0 2 1 14 8 - 1015,9 10 0,0
15.06.2019 12:00:00 20,1 3,3 9 5 18 10 N 1016,0 10 0,0
15.06.2019 11:00:00 19,3 4,6 9 5 22 12 NNE 1016,1 10 0,0
15.06.2019 10:00:00 18,5 5,7 9 5 18 10 NNE 1016,0 10 0,0
15.06.2019 09:00:00 17,4 5,0 9 5 25 14 N 1015,8 10 0,0
15.06.2019 08:00:00 16,8 5,4 13 7 25 14 NNE 1015,4 10 0,0
15.06.2019 07:00:00 15,7 5,3 11 6 22 12 NNE 1015,0 10 0,0
15.06.2019 06:00:00 15,0 7,1 8 4 18 10 N 1014,7 10 0,0
15.06.2019 05:00:00 13,9 7,2 11 6 22 12 N 1014,3 10 0,0
15.06.2019 04:00:00 13,6 7,8 5 3 11 6 N 1013,9 10 0,0
15.06.2019 03:00:00 12,1 5,9 4 2 4 2 NW 1013,8 10 0,0
15.06.2019 02:00:00 12,1 5,5 0 0 0 0 N 1014,0 10 0,0
15.06.2019 01:00:00 12,2 4,9 0 0 4 2 N 1014,1 10 0,0
15.06.2019 00:00:00 14,4 5,2 2 1 4 2 NW 1014,2 10 0,0
14.06.2019 23:00:00 15,4 5,3 0 0 4 2 N 1014,3 10 0,0
14.06.2019 22:00:00 17,3 5,3 0 0 0 0 N 1014,3 10 0,0
14.06.2019 21:00:00 18,3 3,7 2 1 18 10 - 1014,4 10 0,0
14.06.2019 20:00:00 18,8 3,8 4 2 14 8 - 1014,8 10 0,0
14.06.2019 19:00:00 19,1 3,3 8 4 14 8 S 1015,2 10 0,0
14.06.2019 18:00:00 19,2 2,5 9 5 18 10 S 1015,8 10 0,0
14.06.2019 17:00:00 19,0 3,2 11 6 22 12 SSW 1016,3 10 0,0
14.06.2019 16:00:00 19,2 3,4 13 7 18 10 S 1017,0 10 0,0
14.06.2019 15:00:00 19,3 3,5 15 8 22 12 S 1017,8 10 0,0
14.06.2019 14:00:00 19,2 4,2 15 8 22 12 SSE 1018,3 10 0,0
14.06.2019 13:00:00 19,2 5,3 11 6 14 8 SSE 1018,7 10 0,0
14.06.2019 12:00:00 18,8 4,5 5 3 11 6 SSE 1019,1 10 0,0
14.06.2019 11:00:00 18,2 6,1 5 3 11 6 SSE 1019,6 10 0,0
14.06.2019 10:00:00 17,1 6,9 5 3 11 6 SSE 1020,1 10 0,0
14.06.2019 09:00:00 16,4 7,3 4 2 7 4 - 1020,2 10 0,0
14.06.2019 08:00:00 15,9 7,4 2 1 11 6 - 1020,1 10 0,0
14.06.2019 07:00:00 13,5 7,5 2 1 11 6 - 1020,2 10 0,0
14.06.2019 06:00:00 12,4 7,3 4 2 11 6 - 1020,5 10 0,0
14.06.2019 05:00:00 12,1 6,6 5 3 11 6 NNE 1020,6 10 0,0
14.06.2019 04:00:00 12,2 6,3 2 1 7 4 - 1021,1 10 0,0
14.06.2019 03:00:00 12,5 6,1 5 3 14 8 N 1021,1 10 0,0
14.06.2019 02:00:00 13,3 5,5 5 3 14 8 N 1021,3 10 0,0
14.06.2019 01:00:00 13,4 6,3 4 2 7 4 N 1021,7 10 0,0
14.06.2019 00:00:00 13,4 6,5 5 3 7 4 N 1022,1 10 0,0
13.06.2019 23:00:00 14,5 5,0 2 1 7 4 NNE 1022,0 10 0,0
13.06.2019 22:00:00 14,7 4,4 2 1 7 4 - 1022,0 10 0,0
13.06.2019 21:00:00 14,8 4,2 0 0 7 4 N 1022,1 10 0,0
13.06.2019 20:00:00 14,9 3,7 4 2 11 6 - 1022,3 10 0,0
13.06.2019 19:00:00 14,8 3,3 8 4 14 8 NE 1022,6 10 0,0
13.06.2019 18:00:00 14,8 2,7 8 4 18 10 E 1022,8 10 0,0
13.06.2019 17:00:00 14,8 2,3 8 4 18 10 E 1023,2 10 0,0
13.06.2019 16:00:00 15,6 2,0 13 7 22 12 E 1023,6 10 0,0
13.06.2019 15:00:00 15,8 2,2 13 7 22 12 ESE 1024,5 10 0,0
13.06.2019 14:00:00 15,4 1,5 15 8 22 12 SE 1024,9 10 0,0
13.06.2019 13:00:00 13,9 4,2 13 7 22 12 SSE 1025,4 10 0,0
13.06.2019 12:00:00 14,6 3,4 13 7 22 12 SE 1025,6 10 0,0
13.06.2019 11:00:00 13,9 5,3 8 4 14 8 SSE 1025,9 10 0,0
13.06.2019 10:00:00 13,4 6,0 9 5 18 10 SSE 1025,9 10 0,0
13.06.2019 09:00:00 11,9 4,6 11 6 14 8 SE 1026,0 10 0,0
13.06.2019 08:00:00 11,2 5,3 9 5 14 8 SE 1026,2 10 0,0
13.06.2019 07:00:00 10,8 6,0 13 7 14 8 SE 1026,2 10 0,0
13.06.2019 06:00:00 10,4 5,4 11 6 14 8 SE 1026,3 10 0,0
13.06.2019 05:00:00 9,5 6,0 4 2 7 4 ESE 1026,6 10 0,0
13.06.2019 04:00:00 8,5 5,4 2 1 4 2 E 1027,0 10 0,0
13.06.2019 03:00:00 6,0 3,0 0 0 - - N - 10 -
13.06.2019 02:00:00 6,0 1,9 0 0 0 0 N 1027,6 10 0,0
13.06.2019 01:00:00 6,5 1,8 0 0 4 2 N 1027,7 10 0,0

tt = Température de l'air
td = dewpoint
ff = Vitesse du vent
fx = gusts
dd = Direction du vent
ppp = reduced air pressure
vv = visibility
rr = Quantités de précipitations

stations d'obs. à proximité